Back to catalog

STARLINK-6125

AliveCommunicationsVLEO
NORAD 57114·PAYLOAD·🇺🇸 United States

Launched Jun 23, 2023 from Cape Canaveral Space Force Station

Loading…

Next Passes (next 24 hours)

TLE

FreshSource: CelesTrak SupGP

Epoch: Sep 14, 2026, 20:39 UTC

1 57114C 23090P   26257.86090278 -.00020029  00000+0 -72549-3 0  2575
2 57114  43.0001 293.0468 0001419 265.7038 167.1615 15.27586058    11

Track STARLINK-6125 in real time with AllMySat

Download on the App Store